Estación Meteorológica Peña el Pijo (Robertgarden) [ 07/23/19 00:57:21 CEST ]

Fecha Hora Presion(HPa) Temp (°C) Humedad % Rocio (°C) Viento ( m/s) Direccion Lluvia 1Hora(mm) Lluvia 24H(mm) LLuvia Total(mm)
2019-Jul-15 01:09:08 1009.100 - - - - NNW     342.62
2019-Jul-15 02:09:21 1008.900 - - - - NNW     342.62
2019-Jul-15 03:09:28 1008.700 - - - - NNW     342.62
2019-Jul-15 04:09:42 1008.100 - - - - NNW     342.62
2019-Jul-15 05:09:43 1008.000 - - - - NNW     342.62
2019-Jul-15 06:09:24 1008.100 - - - - NNW     342.62
2019-Jul-15 07:08:51 1008.400 - - - - NNW     342.62
2019-Jul-15 08:08:53 1008.300 - - - - NNW     342.62
2019-Jul-15 09:09:36 1008.400 - - - - NNW     342.62
2019-Jul-15 10:09:23 1008.700 - - - - NNW     342.62
2019-Jul-15 11:09:22 1008.900 - - - - NNW     342.62
2019-Jul-15 12:08:58 1009.100 - - - - NNW     342.62
2019-Jul-15 13:09:21 1009.000 - - - - NNW     342.62
2019-Jul-15 14:09:26 1009.000 - - - - NNW     342.62
2019-Jul-15 15:09:25 1008.900 - - - - NNW     342.62
2019-Jul-15 16:09:10 1008.700 - - - - NNW     342.62
2019-Jul-15 17:08:58 1008.500 - - - - NNW     342.62
2019-Jul-15 18:08:52 1008.200 - - - - NNW     342.62
2019-Jul-15 19:09:16 1008.100 - - - - NNW     342.62
2019-Jul-15 20:09:06 1008.600 - - - - NNW     342.62
2019-Jul-15 21:09:02 1008.700 - - - - NNW     342.62
2019-Jul-15 22:08:56 1009.300 - - - - NNW     342.62
2019-Jul-15 23:09:27 1009.700 - - - - NNW     342.62

Temperatura Máxima:    Temperatura Mínima:
Presión Máxima:1009.700 Hpa    Presión Mínima:1008.000 Hpa


Volver